Location: Hurstbourne Priors
(51.2000°N, 1.3667°W)
Time: 07:53:30
(UTC+00:00)

Cosmos 1408 Rocket - Visible Passes

Search period start: 11 August 2020 00:00
Search period end: 21 August 2020 00:00
Orbit: 601 x 630 km, 82.6° (Epoch: 10 August)

Date Brightness Start Highest point End Pass type
(mag) Time Alt. Az. Time Alt. Az. Time Alt. Az.
11 Aug 6.6 20:38:33 10° WSW 20:41:47 19° WNW 20:45:02 10° NNW visible
12 Aug 7.0 20:56:32 10° W 20:58:29 13° WNW 21:00:26 10° NNW visible
14 Aug 7.6 03:59:40 10° NE 04:00:26 10° ENE 04:01:11 10° ENE visible
15 Aug 6.9 04:14:24 10° NNE 04:17:10 16° ENE 04:19:55 10° ESE visible
15 Aug 6.7 20:06:10 10° WSW 20:09:27 20° WNW 20:12:45 10° NNW visible
16 Aug 7.2 20:24:05 10° W 20:26:09 13° WNW 20:28:12 10° NNW visible
19 Aug 6.8 03:42:09 10° NNE 03:44:49 16° ENE 03:47:27 10° E visible
20 Aug 6.3 03:57:54 10° NNE 04:01:28 24° ENE 04:05:01 10° ESE visible
20 Aug 7.2 19:51:39 10° W 19:53:48 13° WNW 19:55:58 10° NNW visible
